Starlink 4675

operational
NORAD ID: 53601 Int'l Des: 2022-104 Owner: SPXS Country: US Constellation: starlink
LEOCIRCULAR

About Starlink 4675

Description loading...

Live Position

Loading 3D Globe...

Upcoming Passes

Altitude History

Altitude vs Time

uPlot chart will show altitude changes over time

Two-Line Element Set

1 53601U 22104P 25303.17526860 .00001741 00000-0 12746-3 0 9998
2 53601 53.2136 109.8767 0001000 74.4307 285.6795 15.08839799175915
Epoch: Oct 30, 2025 • Age: 13 hours

Current Status

Altitude 544.3 km
Velocity 7.60 km/s
Sub-Earth Point 47.62°N, 135.54°W
Launch Date Aug 28, 2022
Age 3.1 years
Type internet

Technical Details

Classification Payload
Mass 300.00 kg
Dry Mass 290.00 kg
Total Mass 300.00 kg
Length 0.20 m
Diameter 2.80 m
Span 9.00 m
Shape Box + pan
Manufacturer SPXS
Bus Type Starlink
Phase Status In Orbit
Owner/State SPXS/US

Large Constellations

Loading constellations...